Weather History for KCON - March, 2013

Change the Weather History Date:

Thursday, March 14, 2013

  Actual Average Record
Temperature  
Mean Temperature 27 °F 32 °F  
Max Temperature 34 °F 43 °F 74 °F (2007)
Min Temperature 19 °F 22 °F -11 °F (1948)
Degree Days  
Heating Degree Days 38 33  
Month to date heating degree days 431 488  
Since 1 July heating degree days 5360 5748  
Cooling Degree Days 0 0  
Month to date cooling degree days 0 0  
Year to date cooling degree days 0 0  
Moisture  
Dew Point 14 °F    
Average Humidity 67    
Maximum Humidity 92    
Minimum Humidity 41    
Precipitation  
Precipitation T in 0.10 in 1.81 in (2010)
Month to date precipitation 0.72 1.39  
Year to date precipitation 5.81 6.71  
Snow  
Snow T in 0.40 in 6.60 in (1984)
Month to date snowfall 4.6 5.9  
Since 1 July snowfall 71.8 53.4  
Snow Depth 6.00 in    
Sea Level Pressure  
Sea Level Pressure 29.75 in    
Wind  
Wind Speed 10 mph (WNW)    
Max Wind Speed 26 mph    
Max Gust Speed 36 mph    
Visibility 10 miles    
Events Snow    
T = Trace of Precipitation, MM = Missing Value Source: NWS Daily Summary

Daily Weather History Graph

Daily Weather History Graph

Search for Another Location

Airport or City:

Trip Planner

Search our weather history database for the weather conditions in past years. The results will help you decide how hot, cold, wet, or windy it might be!

Date:

Astronomy

Mar. 14, 2013 Rise Set
Actual Time 6:59 AM EDT 6:51 PM EDT
Civil Twilight 6:31 AM EDT 7:19 PM EDT
Nautical Twilight 5:58 AM EDT 7:52 PM EDT
Astronomical Twilight 5:24 AM EDT 8:26 PM EDT
Moon 8:05 AM EDT (3/14) 10:11 PM EDT (3/14)
Length of Visible Light 12h 48m
Length of Day
11h 51m
Waxing Crescent, 9% of the Moon is Illuminated
Mar 14
Waxing Crescent
Mar 19
First Quarter
Mar 27
Full
Apr 3
Last Quarter
Apr 10
New

Hourly Weather History & Observations

Time (EDT) Temp. Windchill Dew Point Humidity Pressure Visibility Wind Dir Wind Speed Gust Speed Precip Events Conditions
12:51 AM 25.0 °F - 23.0 °F 92% 29.75 in 10.0 mi Calm Calm - N/A   Clear
1:51 AM 25.0 °F - 21.9 °F 88% 29.75 in 10.0 mi Calm Calm - N/A   Clear
2:51 AM 25.0 °F - 19.9 °F 81% 29.75 in 10.0 mi Calm Calm - N/A   Clear
3:51 AM 23.0 °F - 19.9 °F 88% 29.74 in 10.0 mi Calm Calm - N/A   Clear
4:51 AM 24.1 °F - 21.0 °F 88% 29.74 in 10.0 mi Calm Calm - N/A   Overcast
5:51 AM 27.0 °F - 23.0 °F 85% 29.74 in 10.0 mi Calm Calm - N/A   Overcast
6:51 AM 28.9 °F 21.9 °F 19.0 °F 67% 29.75 in 10.0 mi West 6.9 mph - N/A   Overcast
7:51 AM 28.9 °F 21.9 °F 17.1 °F 61% 29.76 in 10.0 mi WNW 6.9 mph - N/A   Overcast
8:51 AM 30.0 °F 21.7 °F 16.0 °F 56% 29.76 in 10.0 mi WNW 9.2 mph 16.1 mph N/A   Overcast
9:51 AM 30.0 °F 21.1 °F 16.0 °F 56% 29.76 in 10.0 mi WNW 10.4 mph 17.3 mph N/A   Overcast
10:51 AM 32.0 °F 23.6 °F 16.0 °F 52% 29.74 in 10.0 mi West 10.4 mph 18.4 mph N/A   Overcast
11:51 AM 32.0 °F 22.1 °F 15.1 °F 50% 29.73 in 10.0 mi West 13.8 mph - N/A   Overcast
12:51 PM 32.0 °F 23.6 °F 14.0 °F 48% 29.71 in 10.0 mi WSW 10.4 mph - N/A   Overcast
1:51 PM 32.0 °F 23.0 °F 12.9 °F 45% 29.70 in 10.0 mi West 11.5 mph - N/A   Overcast
2:51 PM 33.1 °F 24.4 °F 12.9 °F 43% 29.69 in 10.0 mi West 11.5 mph 20.7 mph N/A   Overcast
3:51 PM 33.1 °F 22.6 °F 14.0 °F 46% 29.69 in 10.0 mi WNW 16.1 mph 20.7 mph N/A   Overcast
4:51 PM 32.0 °F 20.8 °F 12.0 °F 44% 29.70 in 10.0 mi West 17.3 mph 24.2 mph N/A   Mostly Cloudy
5:51 PM 30.0 °F 19.1 °F 12.9 °F 49% 29.72 in 10.0 mi NW 15.0 mph 23.0 mph N/A   Overcast
6:51 PM 25.0 °F 11.7 °F 18.0 °F 75% 29.78 in 4.0 mi NW 17.3 mph 26.5 mph 0.00 in Snow Light Snow
7:51 PM 23.0 °F 10.1 °F 6.1 °F 48% 29.82 in 10.0 mi NW 15.0 mph 35.7 mph 0.00 in   Mostly Cloudy
8:51 PM 21.0 °F 7.1 °F 7.0 °F 55% 29.84 in 10.0 mi NNW 16.1 mph 24.2 mph N/A   Mostly Cloudy
9:51 PM 19.9 °F 5.2 °F 3.9 °F 50% 29.83 in 10.0 mi NW 17.3 mph 29.9 mph N/A   Clear
10:51 PM 19.0 °F 4.5 °F 5.0 °F 54% 29.83 in 10.0 mi NW 16.1 mph 20.7 mph N/A   Partly Cloudy
11:51 PM 19.0 °F 3.6 °F 5.0 °F 54% 29.83 in 10.0 mi NW 18.4 mph 32.2 mph N/A   Clear